Flag for U.S.A. Weather past 2 weeks in Atlanta, Georgia, U.S.A.

Now
60 °F

Sunny.


Feels Like: 60 °F
Forecast: 47 / 72 °F
Wind: 3 mph from Northeast

Location: Fulton County Airport-Brown Field

Current Time: Oct 24, 2014 at 11:46:06 AM

Latest Report: Oct 24, 2014 at 10:53 AM


Visibility: 10 mi

Pressure: 30.07 "Hg

Humidity: 62%

Dew point: 47 °F

Location of AtlantaLocation

Historic Weather in Atlanta — Graph

°F

Atlanta temperature yesterday

Maximum temperature yesterday: 70 °F (at 3:53 PM)
Minimum temperature yesterday: 42 °F (at 4:53 AM)
Average temperature yesterday: 54 °F

Past Weeks' High & Low Weather Summary

 TemperatureHumidityPressure
High85 °F (Oct 10, 2:53 PM)97% (Oct 10, 12:53 AM)30.16 "Hg (Oct 10, 12:53 AM)
Low42 °F (Oct 23, 4:53 AM)35% (Oct 23, 3:53 PM)29.75 "Hg (Oct 14, 2:53 PM)
Average64 °F73%30.00 "Hg
* Reported Oct 9 9:53 AM — Oct 24 9:53 AM, Atlanta, Weather by CustomWeather, © 2014

Note: Actual official high and low records may vary slightly from our data, if they occured in-between our weather recording intervals... More about our weather records

Advertising

Atlanta weather history for previous 24 hours

 ConditionsComfort  
Time TempWeatherWind HumidityBarometerVisibility
9:53 AM
Oct 24
55 °FSunny.No wind74%30.08 "Hg10 mi
8:53 AM49 °FSunny.5 mph86%30.08 "Hg10 mi
7:53 AM47 °FClear.3 mph90%30.06 "Hg10 mi
6:53 AM46 °FClear.No wind89%30.05 "Hg10 mi
5:53 AM49 °FClear.3 mph84%30.05 "Hg10 mi
4:53 AM48 °FClear.No wind86%30.04 "Hg10 mi
3:53 AM46 °FClear.No wind93%30.03 "Hg10 mi
2:53 AM50 °FClear.3 mph80%30.03 "Hg10 mi
1:53 AM50 °FClear.No wind83%30.03 "Hg10 mi
12:53 AM52 °FClear.No wind77%30.03 "Hg10 mi
11:53 PM
Oct 23
52 °FClear.No wind77%30.05 "Hg10 mi
10:53 PM55 °FClear.3 mph67%30.04 "Hg10 mi
9:53 PM55 °FClear.No wind69%30.05 "Hg10 mi
8:53 PM55 °FClear.No wind77%30.06 "Hg10 mi
7:53 PM57 °FSunny.No wind78%30.05 "Hg10 mi
6:53 PM60 °FSunny.3 mph60%30.03 "Hg10 mi
5:53 PM65 °FSunny.6 mph45%30.03 "Hg10 mi
4:53 PM67 °FSunny.9 mph39%30.02 "Hg10 mi
3:53 PM70 °FSunny.9 mph35%30.03 "Hg10 mi
2:53 PM68 °FSunny.10 mph38%30.04 "Hg10 mi
1:53 PM66 °FSunny.7 mph40%30.07 "Hg10 mi
12:53 PM63 °FSunny.6 mph48%30.11 "Hg10 mi
11:53 AM59 °FSunny.3 mph56%30.12 "Hg10 mi
Weather by CustomWeather, © 2014

See weather overviewHow to use our weather pages